Time,TemperatureF,DewpointF,PressureIn,WindDirection,WindDirectionDegrees,WindSpeedMPH,WindSpeedGustMPH,Humidity,HourlyPrecipIn,Conditions,Clouds,dailyrainin,SolarRadiationWatts/m^2,SoftwareType,DateUTC
2013-06-08 00:00:00,52.9,47.2,30.15,NNE,23,1.0,-999.0,81,0.00,,,0.00,0,Wunderground v.1.15,2013-06-08 07:00:00,
2013-06-08 00:05:00,53.0,47.0,30.15,NW,319,1.0,4.0,81,0.00,,,0.00,0,weatherlink.com 1.10,2013-06-08 07:05:00,
2013-06-08 00:10:00,52.9,47.2,30.15,NNE,23,1.0,-999.0,81,0.00,,,0.00,0,Wunderground v.1.15,2013-06-08 07:10:00,
2013-06-08 00:15:00,52.9,47.2,30.15,NNE,23,1.0,-999.0,81,0.00,,,0.00,0,Wunderground v.1.15,2013-06-08 07:15:00,
2013-06-08 00:20:00,52.6,47.0,30.15,NNW,327,2.0,4.0,81,0.00,,,0.00,0,weatherlink.com 1.10,2013-06-08 07:20:00,
2013-06-08 00:25:00,52.4,47.1,30.15,North,0,1.0,-999.0,82,0.00,,,0.00,0,Wunderground v.1.15,2013-06-08 07:25:00,
2013-06-08 00:30:00,52.4,47.1,30.15,North,0,1.0,-999.0,82,0.00,,,0.00,0,Wunderground v.1.15,2013-06-08 07:30:00,
2013-06-08 00:35:00,52.2,47.0,30.15,North,360,0.0,2.0,82,0.00,,,0.00,0,weatherlink.com 1.10,2013-06-08 07:35:00,
2013-06-08 00:40:00,52.1,46.8,30.15,NNE,23,0.0,-999.0,82,0.00,,,0.00,0,Wunderground v.1.15,2013-06-08 07:40:00,
2013-06-08 00:45:00,52.1,46.8,30.15,NNE,23,0.0,-999.0,82,0.00,,,0.00,0,Wunderground v.1.15,2013-06-08 07:45:00,
2013-06-08 00:50:00,52.1,46.8,30.15,NNE,23,0.0,-999.0,82,0.00,,,0.00,0,Wunderground v.1.15,2013-06-08 07:50:00,
2013-06-08 00:51:00,52.0,47.0,30.15,NE,36,0.0,2.0,83,0.00,,,0.00,0,weatherlink.com 1.10,2013-06-08 07:51:00,
2013-06-08 00:55:00,52.0,46.7,30.15,NE,45,0.0,-999.0,82,0.00,,,0.00,0,Wunderground v.1.15,2013-06-08 07:55:00,
2013-06-08 01:00:00,52.0,46.7,30.15,NE,45,0.0,-999.0,82,0.00,,,0.00,0,Wunderground v.1.15,2013-06-08 08:00:00,
2013-06-08 01:05:00,52.0,46.7,30.15,NE,45,0.0,-999.0,82,0.00,,,0.00,0,Wunderground v.1.15,2013-06-08 08:05:00,
2013-06-08 01:06:00,52.1,47.0,30.14,NNW,342,0.0,1.0,82,0.00,,,0.00,0,weatherlink.com 1.10,2013-06-08 08:06:00,
2013-06-08 01:10:00,52.1,46.8,30.15,NNE,23,0.0,-999.0,82,0.00,,,0.00,0,Wunderground v.1.15,2013-06-08 08:10:00,
2013-06-08 01:15:00,52.1,46.8,30.15,NNE,23,0.0,-999.0,82,0.00,,,0.00,0,Wunderground v.1.15,2013-06-08 08:15:00,
2013-06-08 01:20:00,52.1,46.8,30.15,NNE,23,0.0,-999.0,82,0.00,,,0.00,0,Wunderground v.1.15,2013-06-08 08:20:00,
2013-06-08 01:21:00,52.1,47.0,30.15,North,360,0.0,3.0,82,0.00,,,0.00,0,weatherlink.com 1.10,2013-06-08 08:21:00,
2013-06-08 01:25:00,52.1,46.8,30.15,ENE,68,0.0,-999.0,82,0.00,,,0.00,0,Wunderground v.1.15,2013-06-08 08:25:00,
2013-06-08 01:30:00,52.1,46.8,30.15,ENE,68,0.0,-999.0,82,0.00,,,0.00,0,Wunderground v.1.15,2013-06-08 08:30:00,
2013-06-08 01:35:00,52.1,46.8,30.15,ENE,68,0.0,-999.0,82,0.00,,,0.00,0,Wunderground v.1.15,2013-06-08 08:35:00,
2013-06-08 01:36:00,51.9,47.0,30.15,East,88,0.0,2.0,83,0.00,,,0.00,0,weatherlink.com 1.10,2013-06-08 08:36:00,
2013-06-08 01:40:00,51.9,46.9,30.15,East,90,0.0,-999.0,83,0.00,,,0.00,0,Wunderground v.1.15,2013-06-08 08:40:00,
2013-06-08 01:45:00,51.9,46.9,30.15,East,90,0.0,-999.0,83,0.00,,,0.00,0,Wunderground v.1.15,2013-06-08 08:45:00,
2013-06-08 01:50:00,51.9,46.9,30.15,East,90,0.0,-999.0,83,0.00,,,0.00,0,Wunderground v.1.15,2013-06-08 08:50:00,
2013-06-08 01:51:00,51.6,47.0,30.15,NNE,20,0.0,2.0,83,0.00,,,0.00,0,weatherlink.com 1.10,2013-06-08 08:51:00,
2013-06-08 01:55:00,51.6,46.9,30.16,North,0,0.0,-999.0,84,0.00,,,0.00,0,Wunderground v.1.15,2013-06-08 08:55:00,
2013-06-08 02:00:00,51.6,46.9,30.16,North,0,0.0,-999.0,84,0.00,,,0.00,0,Wunderground v.1.15,2013-06-08 09:00:00,
2013-06-08 02:05:00,51.6,46.9,30.16,North,0,0.0,-999.0,84,0.00,,,0.00,0,Wunderground v.1.15,2013-06-08 09:05:00,
2013-06-08 02:06:00,51.6,47.0,30.16,North,5,0.0,1.0,84,0.00,,,0.00,0,weatherlink.com 1.10,2013-06-08 09:06:00,
2013-06-08 02:10:00,51.6,46.9,30.16,North,0,0.0,-999.0,84,0.00,,,0.00,0,Wunderground v.1.15,2013-06-08 09:10:00,
2013-06-08 02:15:00,51.6,46.9,30.16,North,0,0.0,-999.0,84,0.00,,,0.00,0,Wunderground v.1.15,2013-06-08 09:15:00,
2013-06-08 02:20:00,51.6,46.9,30.16,North,0,0.0,-999.0,84,0.00,,,0.00,0,Wunderground v.1.15,2013-06-08 09:20:00,
2013-06-08 02:21:00,51.8,47.0,30.16,NNW,334,0.0,2.0,84,0.00,,,0.00,0,weatherlink.com 1.10,2013-06-08 09:21:00,
2013-06-08 02:25:00,51.8,47.1,30.15,ENE,68,0.0,-999.0,84,0.00,,,0.00,0,Wunderground v.1.15,2013-06-08 09:25:00,
2013-06-08 02:30:00,51.8,47.1,30.15,ENE,68,0.0,-999.0,84,0.00,,,0.00,0,Wunderground v.1.15,2013-06-08 09:30:00,
2013-06-08 02:35:00,51.8,47.1,30.15,ENE,68,0.0,-999.0,84,0.00,,,0.00,0,Wunderground v.1.15,2013-06-08 09:35:00,
2013-06-08 02:36:00,51.8,47.0,30.15,NNE,19,0.0,2.0,84,0.00,,,0.00,0,weatherlink.com 1.10,2013-06-08 09:36:00,
2013-06-08 02:40:00,51.8,47.1,30.16,NNE,23,0.0,-999.0,84,0.00,,,0.00,0,Wunderground v.1.15,2013-06-08 09:40:00,
2013-06-08 02:45:00,51.8,47.1,30.16,NNE,23,0.0,-999.0,84,0.00,,,0.00,0,Wunderground v.1.15,2013-06-08 09:45:00,
2013-06-08 02:50:00,51.8,47.1,30.16,NNE,23,0.0,-999.0,84,0.00,,,0.00,0,Wunderground v.1.15,2013-06-08 09:50:00,
2013-06-08 02:51:00,51.9,47.0,30.16,NNE,14,0.0,1.0,84,0.00,,,0.00,0,weatherlink.com 1.10,2013-06-08 09:51:00,
2013-06-08 02:55:00,51.9,47.2,30.16,NNE,23,0.0,-999.0,84,0.00,,,0.00,0,Wunderground v.1.15,2013-06-08 09:55:00,
2013-06-08 03:00:00,51.9,47.2,30.16,NNE,23,0.0,-999.0,84,0.00,,,0.00,0,Wunderground v.1.15,2013-06-08 10:00:00,
2013-06-08 03:05:00,51.9,47.2,30.16,NNE,23,0.0,-999.0,84,0.00,,,0.00,0,Wunderground v.1.15,2013-06-08 10:05:00,
2013-06-08 03:06:00,51.9,47.0,30.16,East,96,0.0,2.0,84,0.00,,,0.00,0,weatherlink.com 1.10,2013-06-08 10:06:00,
2013-06-08 03:10:00,51.9,47.2,30.16,East,90,0.0,-999.0,84,0.00,,,0.00,0,Wunderground v.1.15,2013-06-08 10:10:00,
2013-06-08 03:15:00,51.9,47.2,30.16,East,90,0.0,-999.0,84,0.00,,,0.00,0,Wunderground v.1.15,2013-06-08 10:15:00,
2013-06-08 03:20:00,51.9,47.2,30.16,East,90,0.0,-999.0,84,0.00,,,0.00,0,Wunderground v.1.15,2013-06-08 10:20:00,
2013-06-08 03:21:00,51.8,47.0,30.16,East,96,0.0,0.0,84,0.00,,,0.00,0,weatherlink.com 1.10,2013-06-08 10:21:00,
2013-06-08 03:25:00,51.8,47.4,30.16,N/A,-737280,0.0,-999.0,85,0.00,,,0.00,0,Wunderground v.1.15,2013-06-08 10:25:00,
2013-06-08 03:30:00,51.8,47.4,30.16,N/A,-737280,0.0,-999.0,85,0.00,,,0.00,0,Wunderground v.1.15,2013-06-08 10:30:00,
2013-06-08 03:35:00,51.8,47.4,30.16,N/A,-737280,0.0,-999.0,85,0.00,,,0.00,0,Wunderground v.1.15,2013-06-08 10:35:00,
2013-06-08 03:36:00,51.5,47.0,30.16,East,84,0.0,1.0,85,0.00,,,0.00,0,weatherlink.com 1.10,2013-06-08 10:36:00,
2013-06-08 03:40:00,51.4,47.0,30.16,East,90,0.0,-999.0,85,0.00,,,0.00,0,Wunderground v.1.15,2013-06-08 10:40:00,
2013-06-08 03:45:00,51.4,47.0,30.16,East,90,0.0,-999.0,85,0.00,,,0.00,0,Wunderground v.1.15,2013-06-08 10:45:00,
2013-06-08 03:50:00,51.4,47.0,30.16,East,90,0.0,-999.0,85,0.00,,,0.00,0,Wunderground v.1.15,2013-06-08 10:50:00,
2013-06-08 03:51:00,51.2,47.0,30.16,ENE,67,1.0,1.0,85,0.00,,,0.00,0,weatherlink.com 1.10,2013-06-08 10:51:00,
2013-06-08 03:55:00,51.2,47.2,30.15,ENE,68,0.0,-999.0,86,0.00,,,0.00,0,Wunderground v.1.15,2013-06-08 10:55:00,
2013-06-08 04:00:00,51.2,47.2,30.15,ENE,68,0.0,-999.0,86,0.00,,,0.00,0,Wunderground v.1.15,2013-06-08 11:00:00,
2013-06-08 04:05:00,51.2,47.2,30.15,ENE,68,0.0,-999.0,86,0.00,,,0.00,0,Wunderground v.1.15,2013-06-08 11:05:00,
2013-06-08 04:06:00,50.9,47.0,30.15,ENE,67,0.0,1.0,86,0.00,,,0.00,0,weatherlink.com 1.10,2013-06-08 11:06:00,
2013-06-08 04:10:00,50.8,46.8,30.15,N/A,-737280,0.0,-999.0,86,0.00,,,0.00,0,Wunderground v.1.15,2013-06-08 11:10:00,
2013-06-08 04:15:00,50.8,46.8,30.15,N/A,-737280,0.0,-999.0,86,0.00,,,0.00,0,Wunderground v.1.15,2013-06-08 11:15:00,
2013-06-08 04:20:00,50.8,46.8,30.15,N/A,-737280,0.0,-999.0,86,0.00,,,0.00,0,Wunderground v.1.15,2013-06-08 11:20:00,
2013-06-08 04:21:00,50.3,47.0,30.15,ENE,67,0.0,0.0,87,0.00,,,0.00,0,weatherlink.com 1.10,2013-06-08 11:21:00,
2013-06-08 04:25:00,50.2,46.8,30.16,N/A,-737280,0.0,-999.0,88,0.00,,,0.00,0,Wunderground v.1.15,2013-06-08 11:25:00,
2013-06-08 04:30:00,50.2,46.8,30.16,N/A,-737280,0.0,-999.0,88,0.00,,,0.00,0,Wunderground v.1.15,2013-06-08 11:30:00,
2013-06-08 04:35:00,50.2,46.8,30.16,N/A,-737280,0.0,-999.0,88,0.00,,,0.00,0,Wunderground v.1.15,2013-06-08 11:35:00,
2013-06-08 04:36:00,50.0,47.0,30.16,NE,51,0.0,2.0,88,0.00,,,0.00,0,weatherlink.com 1.10,2013-06-08 11:36:00,
2013-06-08 04:40:00,50.2,46.5,30.17,NE,45,0.0,-999.0,87,0.00,,,0.00,0,Wunderground v.1.15,2013-06-08 11:40:00,
2013-06-08 04:45:00,50.2,46.5,30.17,NE,45,0.0,-999.0,87,0.00,,,0.00,0,Wunderground v.1.15,2013-06-08 11:45:00,
2013-06-08 04:50:00,50.2,46.5,30.17,NE,45,0.0,-999.0,87,0.00,,,0.00,0,Wunderground v.1.15,2013-06-08 11:50:00,
2013-06-08 04:51:00,50.9,47.0,30.17,North,360,0.0,3.0,87,0.00,,,0.00,0,weatherlink.com 1.10,2013-06-08 11:51:00,
2013-06-08 04:55:00,51.0,47.0,30.17,North,0,0.0,-999.0,86,0.00,,,0.00,0,Wunderground v.1.15,2013-06-08 11:55:00,
2013-06-08 05:00:00,51.0,47.0,30.17,North,0,0.0,-999.0,86,0.00,,,0.00,0,Wunderground v.1.15,2013-06-08 12:00:00,
2013-06-08 05:05:00,51.0,47.0,30.17,North,0,0.0,-999.0,86,0.00,,,0.00,0,Wunderground v.1.15,2013-06-08 12:05:00,
2013-06-08 05:06:00,51.4,47.0,30.17,NNW,329,0.0,4.0,86,0.00,,,0.00,0,weatherlink.com 1.10,2013-06-08 12:06:00,
2013-06-08 05:10:00,51.4,47.0,30.18,NNW,338,0.0,-999.0,85,0.00,,,0.00,0,Wunderground v.1.15,2013-06-08 12:10:00,
2013-06-08 05:15:00,51.4,47.0,30.18,NNW,338,0.0,-999.0,85,0.00,,,0.00,0,Wunderground v.1.15,2013-06-08 12:15:00,
2013-06-08 05:20:00,51.4,47.0,30.18,NNW,338,0.0,-999.0,85,0.00,,,0.00,0,Wunderground v.1.15,2013-06-08 12:20:00,
2013-06-08 05:21:00,51.4,47.0,30.18,NNE,15,0.0,1.0,85,0.00,,,0.00,5,weatherlink.com 1.10,2013-06-08 12:21:00,
2013-06-08 05:25:00,51.4,47.0,30.18,NNE,23,0.0,-999.0,85,0.00,,,0.00,6,Wunderground v.1.15,2013-06-08 12:25:00,
2013-06-08 05:30:00,51.4,47.0,30.18,NNE,23,0.0,-999.0,85,0.00,,,0.00,6,Wunderground v.1.15,2013-06-08 12:30:00,
2013-06-08 05:35:00,51.4,47.0,30.18,NNE,23,0.0,-999.0,85,0.00,,,0.00,6,Wunderground v.1.15,2013-06-08 12:35:00,
2013-06-08 05:40:00,51.2,47.2,30.17,N/A,-737280,0.0,-999.0,86,0.00,,,0.00,12,Wunderground v.1.15,2013-06-08 12:40:00,
2013-06-08 05:45:00,51.2,47.2,30.17,N/A,-737280,0.0,-999.0,86,0.00,,,0.00,12,Wunderground v.1.15,2013-06-08 12:45:00,
2013-06-08 05:50:00,51.2,47.2,30.17,N/A,-737280,0.0,-999.0,86,0.00,,,0.00,12,Wunderground v.1.15,2013-06-08 12:50:00,
2013-06-08 05:55:00,50.8,47.1,30.16,N/A,-737280,0.0,-999.0,87,0.00,,,0.00,18,Wunderground v.1.15,2013-06-08 12:55:00,
2013-06-08 06:00:00,50.8,47.1,30.16,N/A,-737280,0.0,-999.0,87,0.00,,,0.00,18,Wunderground v.1.15,2013-06-08 13:00:00,
2013-06-08 06:05:00,50.8,47.1,30.16,N/A,-737280,0.0,-999.0,87,0.00,,,0.00,18,Wunderground v.1.15,2013-06-08 13:05:00,
2013-06-08 06:06:00,50.5,47.0,30.16,NNE,31,0.0,0.0,87,0.00,,,0.00,26,weatherlink.com 1.10,2013-06-08 13:06:00,
2013-06-08 06:10:00,50.5,47.1,30.17,N/A,-737280,0.0,-999.0,88,0.00,,,0.00,35,Wunderground v.1.15,2013-06-08 13:10:00,
2013-06-08 06:15:00,50.5,47.1,30.17,N/A,-737280,0.0,-999.0,88,0.00,,,0.00,35,Wunderground v.1.15,2013-06-08 13:15:00,
2013-06-08 06:20:00,50.5,47.1,30.17,N/A,-737280,0.0,-999.0,88,0.00,,,0.00,35,Wunderground v.1.15,2013-06-08 13:20:00,
2013-06-08 06:21:00,50.6,47.0,30.16,NNE,31,0.0,0.0,88,0.00,,,0.00,53,weatherlink.com 1.10,2013-06-08 13:21:00,
2013-06-08 06:25:00,50.7,47.0,30.16,N/A,-737280,0.0,-999.0,87,0.00,,,0.00,42,Wunderground v.1.15,2013-06-08 13:25:00,
2013-06-08 06:30:00,50.7,47.0,30.16,N/A,-737280,0.0,-999.0,87,0.00,,,0.00,42,Wunderground v.1.15,2013-06-08 13:30:00,
2013-06-08 06:35:00,50.7,47.0,30.16,N/A,-737280,0.0,-999.0,87,0.00,,,0.00,42,Wunderground v.1.15,2013-06-08 13:35:00,
2013-06-08 06:36:00,50.9,47.0,30.16,NNE,31,0.0,0.0,87,0.00,,,0.00,58,weatherlink.com 1.10,2013-06-08 13:36:00,
2013-06-08 06:40:00,51.1,47.4,30.17,NNE,23,0.0,-999.0,87,0.00,,,0.00,67,Wunderground v.1.15,2013-06-08 13:40:00,
2013-06-08 06:45:00,51.1,47.4,30.17,NNE,23,0.0,-999.0,87,0.00,,,0.00,67,Wunderground v.1.15,2013-06-08 13:45:00,
2013-06-08 06:50:00,51.1,47.4,30.17,NNE,23,0.0,-999.0,87,0.00,,,0.00,67,Wunderground v.1.15,2013-06-08 13:50:00,
2013-06-08 06:51:00,51.7,48.0,30.16,NNE,32,0.0,1.0,87,0.00,,,0.00,74,weatherlink.com 1.10,2013-06-08 13:51:00,
2013-06-08 06:55:00,51.8,47.7,30.17,NNE,23,0.0,-999.0,86,0.00,,,0.00,73,Wunderground v.1.15,2013-06-08 13:55:00,
2013-06-08 07:00:00,51.8,47.7,30.17,NNE,23,0.0,-999.0,86,0.00,,,0.00,73,Wunderground v.1.15,2013-06-08 14:00:00,
2013-06-08 07:05:00,51.8,47.7,30.17,NNE,23,0.0,-999.0,86,0.00,,,0.00,73,Wunderground v.1.15,2013-06-08 14:05:00,
2013-06-08 07:15:00,52.5,47.8,30.17,NNE,23,0.0,-999.0,84,0.00,,,0.00,82,Wunderground v.1.15,2013-06-08 14:15:00,
2013-06-08 07:20:00,52.5,47.8,30.17,NNE,23,0.0,-999.0,84,0.00,,,0.00,82,Wunderground v.1.15,2013-06-08 14:20:00,
2013-06-08 07:21:00,53.2,48.0,30.17,WNW,291,0.0,4.0,81,0.00,,,0.00,98,weatherlink.com 1.10,2013-06-08 14:21:00,
2013-06-08 07:25:00,53.3,47.6,30.17,NNW,338,1.0,-999.0,81,0.00,,,0.00,103,Wunderground v.1.15,2013-06-08 14:25:00,
2013-06-08 07:30:00,53.3,47.6,30.17,NNW,338,1.0,-999.0,81,0.00,,,0.00,103,Wunderground v.1.15,2013-06-08 14:30:00,
2013-06-08 07:35:00,53.3,47.6,30.17,NNW,338,1.0,-999.0,81,0.00,,,0.00,103,Wunderground v.1.15,2013-06-08 14:35:00,
2013-06-08 07:36:00,53.5,48.0,30.17,WNW,303,3.0,5.0,80,0.00,,,0.00,123,weatherlink.com 1.10,2013-06-08 14:36:00,
2013-06-08 07:40:00,53.6,47.6,30.16,WNW,293,1.0,-999.0,80,0.00,,,0.00,131,Wunderground v.1.15,2013-06-08 14:40:00,
2013-06-08 07:45:00,53.6,47.6,30.16,WNW,293,1.0,-999.0,80,0.00,,,0.00,131,Wunderground v.1.15,2013-06-08 14:45:00,
2013-06-08 07:50:00,53.6,47.6,30.16,WNW,293,1.0,-999.0,80,0.00,,,0.00,131,Wunderground v.1.15,2013-06-08 14:50:00,
2013-06-08 07:51:00,54.0,48.0,30.16,WNW,296,0.0,2.0,80,0.00,,,0.00,149,weatherlink.com 1.10,2013-06-08 14:51:00,
2013-06-08 07:55:00,54.1,47.7,30.15,WNW,293,0.0,-999.0,79,0.00,,,0.00,157,Wunderground v.1.15,2013-06-08 14:55:00,
2013-06-08 08:00:00,54.1,47.7,30.15,WNW,293,0.0,-999.0,79,0.00,,,0.00,157,Wunderground v.1.15,2013-06-08 15:00:00,
2013-06-08 08:05:00,54.1,47.7,30.15,WNW,293,0.0,-999.0,79,0.00,,,0.00,157,Wunderground v.1.15,2013-06-08 15:05:00,
2013-06-08 08:06:00,54.6,48.0,30.15,West,278,0.0,3.0,78,0.00,,,0.00,178,weatherlink.com 1.10,2013-06-08 15:06:00,
2013-06-08 08:10:00,54.5,47.8,30.16,WNW,293,1.0,-999.0,78,0.00,,,0.00,175,Wunderground v.1.15,2013-06-08 15:10:00,
2013-06-08 08:15:00,54.5,47.8,30.16,WNW,293,1.0,-999.0,78,0.00,,,0.00,175,Wunderground v.1.15,2013-06-08 15:15:00,
2013-06-08 08:20:00,54.5,47.8,30.16,WNW,293,1.0,-999.0,78,0.00,,,0.00,175,Wunderground v.1.15,2013-06-08 15:20:00,
2013-06-08 08:21:00,54.7,48.0,30.16,WNW,292,2.0,3.0,78,0.00,,,0.00,190,weatherlink.com 1.10,2013-06-08 15:21:00,
2013-06-08 08:25:00,54.8,48.4,30.15,NW,315,1.0,-999.0,79,0.00,,,0.00,209,Wunderground v.1.15,2013-06-08 15:25:00,
2013-06-08 08:30:00,54.8,48.4,30.15,NW,315,1.0,-999.0,79,0.00,,,0.00,209,Wunderground v.1.15,2013-06-08 15:30:00,
2013-06-08 08:35:00,54.8,48.4,30.15,NW,315,1.0,-999.0,79,0.00,,,0.00,209,Wunderground v.1.15,2013-06-08 15:35:00,
2013-06-08 08:36:00,55.3,48.0,30.15,WNW,294,2.0,4.0,77,0.00,,,0.00,244,weatherlink.com 1.10,2013-06-08 15:36:00,
2013-06-08 08:40:00,55.5,49.1,30.15,WNW,293,1.0,-999.0,79,0.00,,,0.00,256,Wunderground v.1.15,2013-06-08 15:40:00,
2013-06-08 08:45:00,55.5,49.1,30.15,WNW,293,1.0,-999.0,79,0.00,,,0.00,256,Wunderground v.1.15,2013-06-08 15:45:00,
2013-06-08 08:50:00,55.5,49.1,30.15,WNW,293,1.0,-999.0,79,0.00,,,0.00,256,Wunderground v.1.15,2013-06-08 15:50:00,
2013-06-08 08:51:00,56.2,49.0,30.15,NNW,341,2.0,4.0,76,0.00,,,0.00,352,weatherlink.com 1.10,2013-06-08 15:51:00,
2013-06-08 08:55:00,56.2,48.4,30.15,NW,315,1.0,-999.0,75,0.00,,,0.00,312,Wunderground v.1.15,2013-06-08 15:55:00,
2013-06-08 09:00:00,56.2,48.4,30.15,NW,315,1.0,-999.0,75,0.00,,,0.00,312,Wunderground v.1.15,2013-06-08 16:00:00,
2013-06-08 09:05:00,56.2,48.4,30.15,NW,315,1.0,-999.0,75,0.00,,,0.00,312,Wunderground v.1.15,2013-06-08 16:05:00,
2013-06-08 09:06:00,56.9,49.0,30.15,SE,141,1.0,4.0,76,0.00,,,0.00,290,weatherlink.com 1.10,2013-06-08 16:06:00,
2013-06-08 09:10:00,56.8,49.0,30.15,WNW,293,2.0,-999.0,75,0.00,,,0.00,283,Wunderground v.1.15,2013-06-08 16:10:00,
2013-06-08 09:15:00,56.8,49.0,30.15,WNW,293,2.0,-999.0,75,0.00,,,0.00,283,Wunderground v.1.15,2013-06-08 16:15:00,
2013-06-08 09:20:00,56.8,49.0,30.15,WNW,293,2.0,-999.0,75,0.00,,,0.00,283,Wunderground v.1.15,2013-06-08 16:20:00,
2013-06-08 09:21:00,56.7,49.0,30.15,WNW,303,0.0,4.0,75,0.00,,,0.00,290,weatherlink.com 1.10,2013-06-08 16:21:00,
2013-06-08 09:25:00,56.8,48.6,30.16,WNW,293,2.0,-999.0,74,0.00,,,0.00,288,Wunderground v.1.15,2013-06-08 16:25:00,
2013-06-08 09:30:00,56.8,48.6,30.16,WNW,293,2.0,-999.0,74,0.00,,,0.00,288,Wunderground v.1.15,2013-06-08 16:30:00,
2013-06-08 09:35:00,56.8,48.6,30.16,WNW,293,2.0,-999.0,74,0.00,,,0.00,288,Wunderground v.1.15,2013-06-08 16:35:00,
2013-06-08 09:36:00,56.9,49.0,30.16,NW,323,0.0,6.0,76,0.00,,,0.00,302,weatherlink.com 1.10,2013-06-08 16:36:00,
2013-06-08 09:40:00,57.0,49.2,30.16,WNW,293,2.0,-999.0,75,0.00,,,0.00,313,Wunderground v.1.15,2013-06-08 16:40:00,
2013-06-08 09:45:00,57.0,49.2,30.16,WNW,293,2.0,-999.0,75,0.00,,,0.00,313,Wunderground v.1.15,2013-06-08 16:45:00,
2013-06-08 09:50:00,57.0,49.2,30.16,WNW,293,2.0,-999.0,75,0.00,,,0.00,313,Wunderground v.1.15,2013-06-08 16:50:00,
2013-06-08 09:51:00,57.5,50.0,30.16,NW,309,0.0,5.0,75,0.00,,,0.00,315,weatherlink.com 1.10,2013-06-08 16:51:00,
2013-06-08 09:55:00,57.5,49.6,30.16,NW,315,2.0,-999.0,75,0.00,,,0.00,329,Wunderground v.1.15,2013-06-08 16:55:00,
2013-06-08 10:00:00,57.5,49.6,30.16,NW,315,2.0,-999.0,75,0.00,,,0.00,329,Wunderground v.1.15,2013-06-08 17:00:00,
2013-06-08 10:05:00,57.5,49.6,30.16,NW,315,2.0,-999.0,75,0.00,,,0.00,329,Wunderground v.1.15,2013-06-08 17:05:00,
2013-06-08 10:07:00,57.6,49.0,30.16,West,280,2.0,5.0,73,0.00,,,0.00,313,weatherlink.com 1.10,2013-06-08 17:07:00,
2013-06-08 10:10:00,57.6,49.4,30.16,NW,315,2.0,-999.0,74,0.00,,,0.00,312,Wunderground v.1.15,2013-06-08 17:10:00,
2013-06-08 10:15:00,57.6,49.4,30.16,NW,315,2.0,-999.0,74,0.00,,,0.00,312,Wunderground v.1.15,2013-06-08 17:15:00,
2013-06-08 10:20:00,57.6,49.4,30.16,NW,315,2.0,-999.0,74,0.00,,,0.00,312,Wunderground v.1.15,2013-06-08 17:20:00,
2013-06-08 10:22:00,57.7,49.0,30.16,WNW,291,3.0,5.0,73,0.00,,,0.00,322,weatherlink.com 1.10,2013-06-08 17:22:00,
2013-06-08 10:25:00,57.7,49.5,30.15,WNW,293,1.0,-999.0,74,0.00,,,0.00,321,Wunderground v.1.15,2013-06-08 17:25:00,
2013-06-08 10:30:00,57.7,49.5,30.15,WNW,293,1.0,-999.0,74,0.00,,,0.00,321,Wunderground v.1.15,2013-06-08 17:30:00,
2013-06-08 10:35:00,57.7,49.5,30.15,WNW,293,1.0,-999.0,74,0.00,,,0.00,321,Wunderground v.1.15,2013-06-08 17:35:00,
2013-06-08 10:37:00,58.4,51.0,30.15,NNW,347,1.0,4.0,75,0.00,,,0.00,357,weatherlink.com 1.10,2013-06-08 17:37:00,
2013-06-08 10:40:00,58.3,49.7,30.15,NW,315,2.0,-999.0,73,0.00,,,0.00,357,Wunderground v.1.15,2013-06-08 17:40:00,
2013-06-08 10:45:00,58.3,49.7,30.15,NW,315,2.0,-999.0,73,0.00,,,0.00,357,Wunderground v.1.15,2013-06-08 17:45:00,
2013-06-08 10:50:00,58.3,49.7,30.15,NW,315,2.0,-999.0,73,0.00,,,0.00,357,Wunderground v.1.15,2013-06-08 17:50:00,
2013-06-08 10:52:00,57.8,49.0,30.15,WNW,286,1.0,7.0,73,0.00,,,0.00,341,weatherlink.com 1.10,2013-06-08 17:52:00,
2013-06-08 10:55:00,57.9,49.7,30.15,WNW,293,2.0,-999.0,74,0.00,,,0.00,362,Wunderground v.1.15,2013-06-08 17:55:00,
2013-06-08 11:00:00,57.9,49.7,30.15,WNW,293,2.0,-999.0,74,0.00,,,0.00,362,Wunderground v.1.15,2013-06-08 18:00:00,
2013-06-08 11:05:00,57.9,49.7,30.15,WNW,293,2.0,-999.0,74,0.00,,,0.00,362,Wunderground v.1.15,2013-06-08 18:05:00,
2013-06-08 11:07:00,58.3,50.0,30.15,SSW,202,2.0,5.0,74,0.00,,,0.00,483,weatherlink.com 1.10,2013-06-08 18:07:00,
2013-06-08 11:10:00,58.5,50.2,30.16,WNW,293,2.0,-999.0,74,0.00,,,0.00,511,Wunderground v.1.15,2013-06-08 18:10:00,
2013-06-08 11:15:00,58.5,50.2,30.16,WNW,293,2.0,-999.0,74,0.00,,,0.00,511,Wunderground v.1.15,2013-06-08 18:15:00,
2013-06-08 11:20:00,58.5,50.2,30.16,WNW,293,2.0,-999.0,74,0.00,,,0.00,511,Wunderground v.1.15,2013-06-08 18:20:00,
2013-06-08 11:22:00,58.9,51.0,30.16,WNW,290,3.0,8.0,74,0.00,,,0.00,693,weatherlink.com 1.10,2013-06-08 18:22:00,
2013-06-08 11:25:00,59.0,51.4,30.16,NW,315,3.0,-999.0,76,0.00,,,0.00,723,Wunderground v.1.15,2013-06-08 18:25:00,
2013-06-08 11:30:00,59.0,51.4,30.16,NW,315,3.0,-999.0,76,0.00,,,0.00,723,Wunderground v.1.15,2013-06-08 18:30:00,
2013-06-08 11:35:00,59.0,51.4,30.16,NW,315,3.0,-999.0,76,0.00,,,0.00,723,Wunderground v.1.15,2013-06-08 18:35:00,
2013-06-08 11:37:00,60.1,51.0,30.16,NW,309,0.0,7.0,72,0.00,,,0.00,840,weatherlink.com 1.10,2013-06-08 18:37:00,
2013-06-08 11:40:00,60.3,50.9,30.16,NW,315,2.0,-999.0,71,0.00,,,0.00,722,Wunderground v.1.15,2013-06-08 18:40:00,
2013-06-08 11:45:00,60.3,50.9,30.16,NW,315,2.0,-999.0,71,0.00,,,0.00,722,Wunderground v.1.15,2013-06-08 18:45:00,
2013-06-08 11:50:00,60.3,50.9,30.16,NW,315,2.0,-999.0,71,0.00,,,0.00,722,Wunderground v.1.15,2013-06-08 18:50:00,
2013-06-08 11:52:00,61.8,52.0,30.16,NW,321,2.0,6.0,70,0.00,,,0.00,271,weatherlink.com 1.10,2013-06-08 18:52:00,
2013-06-08 11:55:00,61.3,52.6,30.16,WNW,293,1.0,-999.0,73,0.00,,,0.00,411,Wunderground v.1.15,2013-06-08 18:55:00,
2013-06-08 12:00:00,61.3,52.6,30.16,WNW,293,1.0,-999.0,73,0.00,,,0.00,411,Wunderground v.1.15,2013-06-08 19:00:00,
2013-06-08 12:05:00,61.3,52.6,30.16,WNW,293,1.0,-999.0,73,0.00,,,0.00,411,Wunderground v.1.15,2013-06-08 19:05:00,
2013-06-08 12:07:00,61.3,51.0,30.16,WNW,298,3.0,4.0,69,0.00,,,0.00,330,weatherlink.com 1.10,2013-06-08 19:07:00,
2013-06-08 12:10:00,61.0,51.1,30.16,WNW,293,2.0,-999.0,70,0.00,,,0.00,398,Wunderground v.1.15,2013-06-08 19:10:00,
2013-06-08 12:15:00,61.0,51.1,30.16,WNW,293,2.0,-999.0,70,0.00,,,0.00,398,Wunderground v.1.15,2013-06-08 19:15:00,
2013-06-08 12:20:00,61.0,51.1,30.16,WNW,293,2.0,-999.0,70,0.00,,,0.00,398,Wunderground v.1.15,2013-06-08 19:20:00,
2013-06-08 12:22:00,60.9,51.0,30.16,NW,306,2.0,5.0,71,0.00,,,0.00,343,weatherlink.com 1.10,2013-06-08 19:22:00,
2013-06-08 12:25:00,60.8,51.3,30.15,WNW,293,2.0,-999.0,71,0.00,,,0.00,357,Wunderground v.1.15,2013-06-08 19:25:00,
2013-06-08 12:30:00,60.8,51.3,30.15,WNW,293,2.0,-999.0,71,0.00,,,0.00,357,Wunderground v.1.15,2013-06-08 19:30:00,
2013-06-08 12:35:00,60.8,51.3,30.15,WNW,293,2.0,-999.0,71,0.00,,,0.00,357,Wunderground v.1.15,2013-06-08 19:35:00,
2013-06-08 12:37:00,60.8,51.0,30.15,WNW,293,1.0,5.0,70,0.00,,,0.00,427,weatherlink.com 1.10,2013-06-08 19:37:00,
2013-06-08 12:40:00,61.0,50.4,30.15,WNW,293,3.0,-999.0,68,0.00,,,0.00,532,Wunderground v.1.15,2013-06-08 19:40:00,
2013-06-08 12:45:00,61.0,50.4,30.15,WNW,293,3.0,-999.0,68,0.00,,,0.00,532,Wunderground v.1.15,2013-06-08 19:45:00,
2013-06-08 12:50:00,61.0,50.4,30.15,WNW,293,3.0,-999.0,68,0.00,,,0.00,532,Wunderground v.1.15,2013-06-08 19:50:00,
2013-06-08 12:52:00,62.2,52.0,30.15,NW,309,3.0,10.0,69,0.00,,,0.00,1071,weatherlink.com 1.10,2013-06-08 19:52:00,
2013-06-08 12:55:00,62.3,50.8,30.15,NW,315,2.0,-999.0,66,0.00,,,0.00,577,Wunderground v.1.15,2013-06-08 19:55:00,
2013-06-08 13:00:00,62.3,50.8,30.15,NW,315,2.0,-999.0,66,0.00,,,0.00,577,Wunderground v.1.15,2013-06-08 20:00:00,
2013-06-08 13:05:00,62.3,50.8,30.15,NW,315,2.0,-999.0,66,0.00,,,0.00,577,Wunderground v.1.15,2013-06-08 20:05:00,
2013-06-08 13:07:00,62.8,52.0,30.15,WNW,296,1.0,5.0,69,0.00,,,0.00,392,weatherlink.com 1.10,2013-06-08 20:07:00,
2013-06-08 13:10:00,62.6,51.5,30.15,NW,315,1.0,-999.0,67,0.00,,,0.00,407,Wunderground v.1.15,2013-06-08 20:10:00,
2013-06-08 13:15:00,62.6,51.5,30.15,NW,315,1.0,-999.0,67,0.00,,,0.00,407,Wunderground v.1.15,2013-06-08 20:15:00,
2013-06-08 13:20:00,62.6,51.5,30.15,NW,315,1.0,-999.0,67,0.00,,,0.00,407,Wunderground v.1.15,2013-06-08 20:20:00,
2013-06-08 13:22:00,62.0,51.0,30.15,North,355,1.0,6.0,68,0.00,,,0.00,353,weatherlink.com 1.10,2013-06-08 20:22:00,
2013-06-08 13:25:00,61.9,51.2,30.15,WNW,293,2.0,-999.0,68,0.00,,,0.00,360,Wunderground v.1.15,2013-06-08 20:25:00,
2013-06-08 13:30:00,61.9,51.2,30.15,WNW,293,2.0,-999.0,68,0.00,,,0.00,360,Wunderground v.1.15,2013-06-08 20:30:00,
2013-06-08 13:35:00,61.9,51.2,30.15,WNW,293,2.0,-999.0,68,0.00,,,0.00,360,Wunderground v.1.15,2013-06-08 20:35:00,
2013-06-08 13:37:00,62.0,51.0,30.15,WNW,286,2.0,4.0,67,0.00,,,0.00,425,weatherlink.com 1.10,2013-06-08 20:37:00,
2013-06-08 13:40:00,62.1,52.2,30.15,WNW,293,2.0,-999.0,70,0.00,,,0.00,457,Wunderground v.1.15,2013-06-08 20:40:00,
2013-06-08 13:45:00,62.1,52.2,30.15,WNW,293,2.0,-999.0,70,0.00,,,0.00,457,Wunderground v.1.15,2013-06-08 20:45:00,
2013-06-08 13:50:00,62.1,52.2,30.15,WNW,293,2.0,-999.0,70,0.00,,,0.00,457,Wunderground v.1.15,2013-06-08 20:50:00,
2013-06-08 13:52:00,62.8,52.0,30.15,SE,136,1.0,6.0,68,0.00,,,0.00,779,weatherlink.com 1.10,2013-06-08 20:52:00,
2013-06-08 13:55:00,63.0,51.0,30.15,NW,315,1.0,-999.0,65,0.00,,,0.00,582,Wunderground v.1.15,2013-06-08 20:55:00,
2013-06-08 14:00:00,63.0,51.0,30.15,NW,315,1.0,-999.0,65,0.00,,,0.00,582,Wunderground v.1.15,2013-06-08 21:00:00,
2013-06-08 14:05:00,63.0,51.0,30.15,NW,315,1.0,-999.0,65,0.00,,,0.00,582,Wunderground v.1.15,2013-06-08 21:05:00,
2013-06-08 14:07:00,63.5,51.0,30.15,NW,320,0.0,6.0,65,0.00,,,0.00,545,weatherlink.com 1.10,2013-06-08 21:07:00,
2013-06-08 14:10:00,63.8,51.8,30.15,NW,315,1.0,-999.0,65,0.00,,,0.00,599,Wunderground v.1.15,2013-06-08 21:10:00,
2013-06-08 14:15:00,63.8,51.8,30.15,NW,315,1.0,-999.0,65,0.00,,,0.00,599,Wunderground v.1.15,2013-06-08 21:15:00,
2013-06-08 14:20:00,63.8,51.8,30.15,NW,315,1.0,-999.0,65,0.00,,,0.00,599,Wunderground v.1.15,2013-06-08 21:20:00,
2013-06-08 14:22:00,64.8,51.0,30.15,WNW,300,0.0,4.0,62,0.00,,,0.00,659,weatherlink.com 1.10,2013-06-08 21:22:00,
2013-06-08 14:25:00,64.7,52.7,30.14,NW,315,2.0,-999.0,65,0.00,,,0.00,591,Wunderground v.1.15,2013-06-08 21:25:00,
2013-06-08 14:30:00,64.7,52.7,30.14,NW,315,2.0,-999.0,65,0.00,,,0.00,591,Wunderground v.1.15,2013-06-08 21:30:00,
2013-06-08 14:35:00,64.7,52.7,30.14,NW,315,2.0,-999.0,65,0.00,,,0.00,591,Wunderground v.1.15,2013-06-08 21:35:00,
2013-06-08 14:37:00,64.3,52.0,30.14,WNW,301,4.0,8.0,65,0.00,,,0.00,615,weatherlink.com 1.10,2013-06-08 21:37:00,
2013-06-08 14:40:00,64.4,53.2,30.14,NW,315,2.0,-999.0,67,0.00,,,0.00,645,Wunderground v.1.15,2013-06-08 21:40:00,
2013-06-08 14:45:00,64.4,53.2,30.14,NW,315,2.0,-999.0,67,0.00,,,0.00,645,Wunderground v.1.15,2013-06-08 21:45:00,
2013-06-08 14:50:00,64.4,53.2,30.14,NW,315,2.0,-999.0,67,0.00,,,0.00,645,Wunderground v.1.15,2013-06-08 21:50:00,
2013-06-08 14:52:00,64.1,52.0,30.14,NNW,327,2.0,8.0,65,0.00,,,0.00,584,weatherlink.com 1.10,2013-06-08 21:52:00,
2013-06-08 14:55:00,64.3,51.9,30.14,WNW,293,3.0,-999.0,64,0.00,,,0.00,580,Wunderground v.1.15,2013-06-08 21:55:00,
2013-06-08 15:00:00,64.3,51.9,30.14,WNW,293,3.0,-999.0,64,0.00,,,0.00,580,Wunderground v.1.15,2013-06-08 22:00:00,
2013-06-08 15:05:00,64.3,51.9,30.14,WNW,293,3.0,-999.0,64,0.00,,,0.00,580,Wunderground v.1.15,2013-06-08 22:05:00,
2013-06-08 15:07:00,64.2,53.0,30.14,WNW,288,3.0,7.0,66,0.00,,,0.00,603,weatherlink.com 1.10,2013-06-08 22:07:00,
2013-06-08 15:10:00,64.1,51.7,30.14,WNW,293,4.0,-999.0,64,0.00,,,0.00,529,Wunderground v.1.15,2013-06-08 22:10:00,
2013-06-08 15:15:00,64.1,51.7,30.14,WNW,293,4.0,-999.0,64,0.00,,,0.00,529,Wunderground v.1.15,2013-06-08 22:15:00,
2013-06-08 15:20:00,64.1,51.7,30.14,WNW,293,4.0,-999.0,64,0.00,,,0.00,529,Wunderground v.1.15,2013-06-08 22:20:00,
2013-06-08 15:22:00,63.6,53.0,30.14,West,272,4.0,8.0,68,0.00,,,0.00,397,weatherlink.com 1.10,2013-06-08 22:22:00,
2013-06-08 15:25:00,63.5,51.5,30.14,WNW,293,4.0,-999.0,65,0.00,,,0.00,428,Wunderground v.1.15,2013-06-08 22:25:00,
2013-06-08 15:30:00,63.5,51.5,30.14,WNW,293,4.0,-999.0,65,0.00,,,0.00,428,Wunderground v.1.15,2013-06-08 22:30:00,
2013-06-08 15:35:00,63.5,51.5,30.14,WNW,293,4.0,-999.0,65,0.00,,,0.00,428,Wunderground v.1.15,2013-06-08 22:35:00,
2013-06-08 15:37:00,62.9,51.0,30.14,NW,316,5.0,10.0,66,0.00,,,0.00,346,weatherlink.com 1.10,2013-06-08 22:37:00,
2013-06-08 15:40:00,62.8,51.3,30.14,WNW,293,3.0,-999.0,66,0.00,,,0.00,353,Wunderground v.1.15,2013-06-08 22:40:00,
2013-06-08 15:45:00,62.8,51.3,30.14,WNW,293,3.0,-999.0,66,0.00,,,0.00,353,Wunderground v.1.15,2013-06-08 22:45:00,
2013-06-08 15:50:00,62.8,51.3,30.14,WNW,293,3.0,-999.0,66,0.00,,,0.00,353,Wunderground v.1.15,2013-06-08 22:50:00,
2013-06-08 15:52:00,62.4,51.0,30.14,NNW,338,3.0,9.0,67,0.00,,,0.00,373,weatherlink.com 1.10,2013-06-08 22:52:00,
2013-06-08 15:55:00,62.3,51.6,30.14,WNW,293,3.0,-999.0,68,0.00,,,0.00,362,Wunderground v.1.15,2013-06-08 22:55:00,
2013-06-08 16:00:00,62.3,51.6,30.14,WNW,293,3.0,-999.0,68,0.00,,,0.00,362,Wunderground v.1.15,2013-06-08 23:00:00,
2013-06-08 16:05:00,62.3,51.6,30.14,WNW,293,3.0,-999.0,68,0.00,,,0.00,362,Wunderground v.1.15,2013-06-08 23:05:00,
2013-06-08 16:07:00,62.0,51.0,30.14,WNW,293,2.0,8.0,67,0.00,,,0.00,388,weatherlink.com 1.10,2013-06-08 23:07:00,
2013-06-08 16:10:00,62.1,51.0,30.14,WNW,293,4.0,-999.0,67,0.00,,,0.00,401,Wunderground v.1.15,2013-06-08 23:10:00,
2013-06-08 16:15:00,62.1,51.0,30.14,WNW,293,4.0,-999.0,67,0.00,,,0.00,401,Wunderground v.1.15,2013-06-08 23:15:00,
2013-06-08 16:20:00,62.1,51.0,30.14,WNW,293,4.0,-999.0,67,0.00,,,0.00,401,Wunderground v.1.15,2013-06-08 23:20:00,
2013-06-08 16:22:00,62.3,52.0,30.14,NW,311,2.0,8.0,70,0.00,,,0.00,353,weatherlink.com 1.10,2013-06-08 23:22:00,
2013-06-08 16:25:00,62.4,51.7,30.13,WNW,293,3.0,-999.0,68,0.00,,,0.00,352,Wunderground v.1.15,2013-06-08 23:25:00,
2013-06-08 16:30:00,62.4,51.7,30.13,WNW,293,3.0,-999.0,68,0.00,,,0.00,352,Wunderground v.1.15,2013-06-08 23:30:00,
2013-06-08 16:35:00,62.4,51.7,30.13,WNW,293,3.0,-999.0,68,0.00,,,0.00,352,Wunderground v.1.15,2013-06-08 23:35:00,
2013-06-08 16:37:00,62.3,51.0,30.13,WNW,286,2.0,7.0,67,0.00,,,0.00,318,weatherlink.com 1.10,2013-06-08 23:37:00,
2013-06-08 16:40:00,62.4,51.7,30.14,WNW,293,3.0,-999.0,68,0.00,,,0.00,324,Wunderground v.1.15,2013-06-08 23:40:00,
2013-06-08 16:45:00,62.4,51.7,30.14,WNW,293,3.0,-999.0,68,0.00,,,0.00,324,Wunderground v.1.15,2013-06-08 23:45:00,
2013-06-08 16:50:00,62.4,51.7,30.14,WNW,293,3.0,-999.0,68,0.00,,,0.00,324,Wunderground v.1.15,2013-06-08 23:50:00,
2013-06-08 16:52:00,62.1,51.0,30.14,NNW,327,4.0,9.0,68,0.00,,,0.00,299,weatherlink.com 1.10,2013-06-08 23:52:00,
2013-06-08 16:55:00,62.2,51.5,30.13,WNW,293,4.0,-999.0,68,0.00,,,0.00,346,Wunderground v.1.15,2013-06-08 23:55:00,
2013-06-08 17:00:00,62.2,51.5,30.13,WNW,293,4.0,-999.0,68,0.00,,,0.00,346,Wunderground v.1.15,2013-06-09 00:00:00,
2013-06-08 17:05:00,62.2,51.5,30.13,WNW,293,4.0,-999.0,68,0.00,,,0.00,346,Wunderground v.1.15,2013-06-09 00:05:00,
2013-06-08 17:07:00,62.9,52.0,30.13,WNW,286,3.0,8.0,68,0.00,,,0.00,352,weatherlink.com 1.10,2013-06-09 00:07:00,
2013-06-08 17:10:00,62.8,51.7,30.13,NW,315,4.0,-999.0,67,0.00,,,0.00,436,Wunderground v.1.15,2013-06-09 00:10:00,
2013-06-08 17:15:00,62.8,51.7,30.13,NW,315,4.0,-999.0,67,0.00,,,0.00,436,Wunderground v.1.15,2013-06-09 00:15:00,
2013-06-08 17:20:00,62.8,51.7,30.13,NW,315,4.0,-999.0,67,0.00,,,0.00,436,Wunderground v.1.15,2013-06-09 00:20:00,
2013-06-08 17:22:00,63.0,51.0,30.13,NNW,343,5.0,9.0,66,0.00,,,0.00,306,weatherlink.com 1.10,2013-06-09 00:22:00,
2013-06-08 17:25:00,62.9,51.8,30.13,WNW,293,4.0,-999.0,67,0.00,,,0.00,351,Wunderground v.1.15,2013-06-09 00:25:00,
2013-06-08 17:30:00,62.9,51.8,30.13,WNW,293,4.0,-999.0,67,0.00,,,0.00,351,Wunderground v.1.15,2013-06-09 00:30:00,
2013-06-08 17:35:00,62.9,51.8,30.13,WNW,293,4.0,-999.0,67,0.00,,,0.00,351,Wunderground v.1.15,2013-06-09 00:35:00,
2013-06-08 17:37:00,62.3,52.0,30.12,West,279,4.0,9.0,68,0.00,,,0.00,243,weatherlink.com 1.10,2013-06-09 00:37:00,
2013-06-08 17:40:00,62.2,52.3,30.12,WNW,293,4.0,-999.0,70,0.00,,,0.00,304,Wunderground v.1.15,2013-06-09 00:40:00,
2013-06-08 17:45:00,62.2,52.3,30.12,WNW,293,4.0,-999.0,70,0.00,,,0.00,304,Wunderground v.1.15,2013-06-09 00:45:00,
2013-06-08 17:50:00,62.2,52.3,30.12,WNW,293,4.0,-999.0,70,0.00,,,0.00,304,Wunderground v.1.15,2013-06-09 00:50:00,
2013-06-08 17:52:00,62.1,52.0,30.12,West,275,4.0,8.0,70,0.00,,,0.00,241,weatherlink.com 1.10,2013-06-09 00:52:00,
2013-06-08 17:55:00,62.0,52.1,30.12,WNW,293,3.0,-999.0,70,0.00,,,0.00,205,Wunderground v.1.15,2013-06-09 00:55:00,
2013-06-08 18:00:00,62.0,52.1,30.12,WNW,293,3.0,-999.0,70,0.00,,,0.00,205,Wunderground v.1.15,2013-06-09 01:00:00,
2013-06-08 18:05:00,62.0,52.1,30.12,WNW,293,3.0,-999.0,70,0.00,,,0.00,205,Wunderground v.1.15,2013-06-09 01:05:00,
2013-06-08 18:07:00,61.7,52.0,30.12,NW,309,3.0,6.0,70,0.00,,,0.00,204,weatherlink.com 1.10,2013-06-09 01:07:00,
2013-06-08 18:10:00,61.7,51.8,30.12,WNW,293,3.0,-999.0,70,0.00,,,0.00,203,Wunderground v.1.15,2013-06-09 01:10:00,
2013-06-08 18:15:00,61.7,51.8,30.12,WNW,293,3.0,-999.0,70,0.00,,,0.00,203,Wunderground v.1.15,2013-06-09 01:15:00,
2013-06-08 18:20:00,61.7,51.8,30.12,WNW,293,3.0,-999.0,70,0.00,,,0.00,203,Wunderground v.1.15,2013-06-09 01:20:00,
2013-06-08 18:22:00,61.4,52.0,30.12,NW,308,2.0,9.0,71,0.00,,,0.00,218,weatherlink.com 1.10,2013-06-09 01:22:00,
2013-06-08 18:25:00,61.7,51.4,30.12,NW,315,3.0,-999.0,69,0.00,,,0.00,304,Wunderground v.1.15,2013-06-09 01:25:00,
2013-06-08 18:30:00,61.7,51.4,30.12,NW,315,3.0,-999.0,69,0.00,,,0.00,304,Wunderground v.1.15,2013-06-09 01:30:00,
2013-06-08 18:35:00,61.7,51.4,30.12,NW,315,3.0,-999.0,69,0.00,,,0.00,304,Wunderground v.1.15,2013-06-09 01:35:00,
2013-06-08 18:37:00,63.3,51.0,30.12,NNE,15,5.0,8.0,65,0.00,,,0.00,366,weatherlink.com 1.10,2013-06-09 01:37:00,
2013-06-08 18:40:00,63.3,51.7,30.11,WNW,293,4.0,-999.0,66,0.00,,,0.00,363,Wunderground v.1.15,2013-06-09 01:40:00,
2013-06-08 18:45:00,63.3,51.7,30.11,WNW,293,4.0,-999.0,66,0.00,,,0.00,363,Wunderground v.1.15,2013-06-09 01:45:00,
2013-06-08 18:50:00,63.3,51.7,30.11,WNW,293,4.0,-999.0,66,0.00,,,0.00,363,Wunderground v.1.15,2013-06-09 01:50:00,
2013-06-08 18:52:00,63.3,51.0,30.11,NW,313,4.0,8.0,65,0.00,,,0.00,292,weatherlink.com 1.10,2013-06-09 01:52:00,
2013-06-08 18:55:00,63.2,51.6,30.11,NW,315,4.0,-999.0,66,0.00,,,0.00,287,Wunderground v.1.15,2013-06-09 01:55:00,
2013-06-08 19:00:00,63.2,51.6,30.11,NW,315,4.0,-999.0,66,0.00,,,0.00,287,Wunderground v.1.15,2013-06-09 02:00:00,
2013-06-08 19:05:00,63.2,51.6,30.11,NW,315,4.0,-999.0,66,0.00,,,0.00,287,Wunderground v.1.15,2013-06-09 02:05:00,
2013-06-08 19:07:00,63.3,51.0,30.11,NNW,342,2.0,6.0,65,0.00,,,0.00,246,weatherlink.com 1.10,2013-06-09 02:07:00,
2013-06-08 19:10:00,63.3,50.5,30.11,WNW,293,2.0,-999.0,63,0.00,,,0.00,244,Wunderground v.1.15,2013-06-09 02:10:00,
2013-06-08 19:15:00,63.3,50.5,30.11,WNW,293,2.0,-999.0,63,0.00,,,0.00,244,Wunderground v.1.15,2013-06-09 02:15:00,
2013-06-08 19:20:00,63.3,50.5,30.11,WNW,293,2.0,-999.0,63,0.00,,,0.00,244,Wunderground v.1.15,2013-06-09 02:20:00,
2013-06-08 19:22:00,63.9,51.0,30.11,WNW,296,2.0,4.0,63,0.00,,,0.00,209,weatherlink.com 1.10,2013-06-09 02:22:00,
2013-06-08 19:25:00,63.9,50.6,30.11,WNW,293,1.0,-999.0,62,0.00,,,0.00,187,Wunderground v.1.15,2013-06-09 02:25:00,
2013-06-08 19:30:00,63.9,50.6,30.11,WNW,293,1.0,-999.0,62,0.00,,,0.00,187,Wunderground v.1.15,2013-06-09 02:30:00,
2013-06-08 19:35:00,63.9,50.6,30.11,WNW,293,1.0,-999.0,62,0.00,,,0.00,187,Wunderground v.1.15,2013-06-09 02:35:00,
2013-06-08 19:37:00,63.4,50.0,30.11,NNW,348,2.0,3.0,62,0.00,,,0.00,58,weatherlink.com 1.10,2013-06-09 02:37:00,
2013-06-08 19:40:00,63.4,50.6,30.10,NNW,338,1.0,-999.0,63,0.00,,,0.00,118,Wunderground v.1.15,2013-06-09 02:40:00,
2013-06-08 19:45:00,63.4,50.6,30.10,NNW,338,1.0,-999.0,63,0.00,,,0.00,118,Wunderground v.1.15,2013-06-09 02:45:00,
2013-06-08 19:50:00,63.4,50.6,30.10,NNW,338,1.0,-999.0,63,0.00,,,0.00,118,Wunderground v.1.15,2013-06-09 02:50:00,
2013-06-08 19:52:00,63.2,50.0,30.11,NNE,31,2.0,4.0,62,0.00,,,0.00,127,weatherlink.com 1.10,2013-06-09 02:52:00,
2013-06-08 19:55:00,63.1,50.3,30.10,North,0,1.0,-999.0,63,0.00,,,0.00,110,Wunderground v.1.15,2013-06-09 02:55:00,
2013-06-08 20:00:00,63.1,50.3,30.10,North,0,1.0,-999.0,63,0.00,,,0.00,110,Wunderground v.1.15,2013-06-09 03:00:00,
2013-06-08 20:05:00,63.1,50.3,30.10,North,0,1.0,-999.0,63,0.00,,,0.00,110,Wunderground v.1.15,2013-06-09 03:05:00,
2013-06-08 20:07:00,62.5,50.0,30.10,North,9,1.0,3.0,63,0.00,,,0.00,54,weatherlink.com 1.10,2013-06-09 03:07:00,
2013-06-08 20:10:00,62.3,50.0,30.10,North,0,1.0,-999.0,64,0.00,,,0.00,57,Wunderground v.1.15,2013-06-09 03:10:00,
2013-06-08 20:15:00,62.3,50.0,30.10,North,0,1.0,-999.0,64,0.00,,,0.00,57,Wunderground v.1.15,2013-06-09 03:15:00,
2013-06-08 20:20:00,62.3,50.0,30.10,North,0,1.0,-999.0,64,0.00,,,0.00,57,Wunderground v.1.15,2013-06-09 03:20:00,
2013-06-08 20:22:00,61.0,49.0,30.11,West,273,1.0,4.0,65,0.00,,,0.00,28,weatherlink.com 1.10,2013-06-09 03:22:00,
2013-06-08 20:25:00,61.0,50.8,30.10,West,270,1.0,-999.0,69,0.00,,,0.00,27,Wunderground v.1.15,2013-06-09 03:25:00,
2013-06-08 20:30:00,61.0,50.8,30.10,West,270,1.0,-999.0,69,0.00,,,0.00,27,Wunderground v.1.15,2013-06-09 03:30:00,
2013-06-08 20:35:00,61.0,50.8,30.10,West,270,1.0,-999.0,69,0.00,,,0.00,27,Wunderground v.1.15,2013-06-09 03:35:00,
2013-06-08 20:37:00,59.5,50.0,30.10,WNW,300,3.0,4.0,71,0.00,,,0.00,21,weatherlink.com 1.10,2013-06-09 03:37:00,
2013-06-08 20:40:00,59.4,50.7,30.10,WNW,293,1.0,-999.0,73,0.00,,,0.00,19,Wunderground v.1.15,2013-06-09 03:40:00,
2013-06-08 20:45:00,59.4,50.7,30.10,WNW,293,1.0,-999.0,73,0.00,,,0.00,19,Wunderground v.1.15,2013-06-09 03:45:00,
2013-06-08 20:50:00,59.4,50.7,30.10,WNW,293,1.0,-999.0,73,0.00,,,0.00,19,Wunderground v.1.15,2013-06-09 03:50:00,
2013-06-08 20:52:00,58.4,50.0,30.10,NW,312,1.0,5.0,73,0.00,,,0.00,9,weatherlink.com 1.10,2013-06-09 03:52:00,
2013-06-08 20:55:00,58.4,50.1,30.10,NW,315,2.0,-999.0,74,0.00,,,0.00,8,Wunderground v.1.15,2013-06-09 03:55:00,
2013-06-08 21:00:00,58.4,50.1,30.10,NW,315,2.0,-999.0,74,0.00,,,0.00,8,Wunderground v.1.15,2013-06-09 04:00:00,
2013-06-08 21:05:00,58.4,50.1,30.10,NW,315,2.0,-999.0,74,0.00,,,0.00,8,Wunderground v.1.15,2013-06-09 04:05:00,
2013-06-08 21:07:00,57.6,50.0,30.10,WNW,293,3.0,3.0,75,0.00,,,0.00,0,weatherlink.com 1.10,2013-06-09 04:07:00,
2013-06-08 21:10:00,57.5,50.0,30.11,WNW,293,2.0,-999.0,76,0.00,,,0.00,1,Wunderground v.1.15,2013-06-09 04:10:00,
2013-06-08 21:15:00,57.5,50.0,30.11,WNW,293,2.0,-999.0,76,0.00,,,0.00,1,Wunderground v.1.15,2013-06-09 04:15:00,
2013-06-08 21:20:00,57.5,50.0,30.11,WNW,293,2.0,-999.0,76,0.00,,,0.00,1,Wunderground v.1.15,2013-06-09 04:20:00,
2013-06-08 21:22:00,56.6,49.0,30.11,West,281,3.0,4.0,76,0.00,,,0.00,0,weatherlink.com 1.10,2013-06-09 04:22:00,
2013-06-08 21:25:00,56.5,49.0,30.11,WNW,293,2.0,-999.0,76,0.00,,,0.00,0,Wunderground v.1.15,2013-06-09 04:25:00,
2013-06-08 21:30:00,56.5,49.0,30.11,WNW,293,2.0,-999.0,76,0.00,,,0.00,0,Wunderground v.1.15,2013-06-09 04:30:00,
2013-06-08 21:35:00,56.5,49.0,30.11,WNW,293,2.0,-999.0,76,0.00,,,0.00,0,Wunderground v.1.15,2013-06-09 04:35:00,
2013-06-08 21:37:00,56.0,49.0,30.11,West,279,0.0,5.0,76,0.00,,,0.00,0,weatherlink.com 1.10,2013-06-09 04:37:00,
2013-06-08 21:40:00,55.9,48.1,30.11,NW,315,2.0,-999.0,75,0.00,,,0.00,0,Wunderground v.1.15,2013-06-09 04:40:00,
2013-06-08 21:45:00,55.9,48.1,30.11,NW,315,2.0,-999.0,75,0.00,,,0.00,0,Wunderground v.1.15,2013-06-09 04:45:00,
2013-06-08 21:50:00,55.9,48.1,30.11,NW,315,2.0,-999.0,75,0.00,,,0.00,0,Wunderground v.1.15,2013-06-09 04:50:00,
2013-06-08 21:52:00,55.4,48.0,30.11,NW,304,2.0,5.0,75,0.00,,,0.00,0,weatherlink.com 1.10,2013-06-09 04:52:00,
2013-06-08 21:55:00,55.3,47.9,30.11,WNW,293,1.0,-999.0,76,0.00,,,0.00,0,Wunderground v.1.15,2013-06-09 04:55:00,
2013-06-08 22:00:00,55.3,47.9,30.11,WNW,293,1.0,-999.0,76,0.00,,,0.00,0,Wunderground v.1.15,2013-06-09 05:00:00,
2013-06-08 22:05:00,55.3,47.9,30.11,WNW,293,1.0,-999.0,76,0.00,,,0.00,0,Wunderground v.1.15,2013-06-09 05:05:00,
2013-06-08 22:07:00,54.6,48.0,30.11,WNW,298,0.0,2.0,77,0.00,,,0.00,0,weatherlink.com 1.10,2013-06-09 05:07:00,
2013-06-08 22:10:00,54.6,47.9,30.11,WNW,293,0.0,-999.0,78,0.00,,,0.00,0,Wunderground v.1.15,2013-06-09 05:10:00,
2013-06-08 22:15:00,54.6,47.9,30.11,WNW,293,0.0,-999.0,78,0.00,,,0.00,0,Wunderground v.1.15,2013-06-09 05:15:00,
2013-06-08 22:20:00,54.6,47.9,30.11,WNW,293,0.0,-999.0,78,0.00,,,0.00,0,Wunderground v.1.15,2013-06-09 05:20:00,
2013-06-08 22:22:00,53.9,48.0,30.11,NNW,333,0.0,3.0,79,0.00,,,0.00,0,weatherlink.com 1.10,2013-06-09 05:22:00,
2013-06-08 22:25:00,54.0,47.6,30.11,NW,315,1.0,-999.0,79,0.00,,,0.00,0,Wunderground v.1.15,2013-06-09 05:25:00,
2013-06-08 22:30:00,54.0,47.6,30.11,NW,315,1.0,-999.0,79,0.00,,,0.00,0,Wunderground v.1.15,2013-06-09 05:30:00,
2013-06-08 22:35:00,54.0,47.6,30.11,NW,315,1.0,-999.0,79,0.00,,,0.00,0,Wunderground v.1.15,2013-06-09 05:35:00,
2013-06-08 22:37:00,53.9,48.0,30.11,WNW,300,0.0,3.0,80,0.00,,,0.00,0,weatherlink.com 1.10,2013-06-09 05:37:00,
2013-06-08 22:40:00,53.9,48.2,30.11,WNW,293,1.0,-999.0,81,0.00,,,0.00,0,Wunderground v.1.15,2013-06-09 05:40:00,
2013-06-08 22:45:00,53.9,48.2,30.11,WNW,293,1.0,-999.0,81,0.00,,,0.00,0,Wunderground v.1.15,2013-06-09 05:45:00,
2013-06-08 22:50:00,53.9,48.2,30.11,WNW,293,1.0,-999.0,81,0.00,,,0.00,0,Wunderground v.1.15,2013-06-09 05:50:00,
2013-06-08 22:52:00,54.0,48.0,30.11,WNW,291,1.0,3.0,79,0.00,,,0.00,0,weatherlink.com 1.10,2013-06-09 05:52:00,
2013-06-08 22:55:00,54.1,47.7,30.11,WNW,293,1.0,-999.0,79,0.00,,,0.00,0,Wunderground v.1.15,2013-06-09 05:55:00,
2013-06-08 23:00:00,54.1,47.7,30.11,WNW,293,1.0,-999.0,79,0.00,,,0.00,0,Wunderground v.1.15,2013-06-09 06:00:00,
2013-06-08 23:05:00,54.1,47.7,30.11,WNW,293,1.0,-999.0,79,0.00,,,0.00,0,Wunderground v.1.15,2013-06-09 06:05:00,
2013-06-08 23:07:00,54.3,48.0,30.11,WNW,292,1.0,2.0,79,0.00,,,0.00,0,weatherlink.com 1.10,2013-06-09 06:07:00,
2013-06-08 23:10:00,54.3,47.9,30.11,WNW,293,1.0,-999.0,79,0.00,,,0.00,0,Wunderground v.1.15,2013-06-09 06:10:00,
2013-06-08 23:15:00,54.3,47.9,30.11,WNW,293,1.0,-999.0,79,0.00,,,0.00,0,Wunderground v.1.15,2013-06-09 06:15:00,
2013-06-08 23:20:00,54.3,47.9,30.11,WNW,293,1.0,-999.0,79,0.00,,,0.00,0,Wunderground v.1.15,2013-06-09 06:20:00,
2013-06-08 23:22:00,54.5,48.0,30.11,WNW,302,2.0,5.0,78,0.00,,,0.00,0,weatherlink.com 1.10,2013-06-09 06:22:00,
2013-06-08 23:25:00,54.5,47.8,30.11,WNW,293,2.0,-999.0,78,0.00,,,0.00,0,Wunderground v.1.15,2013-06-09 06:25:00,
2013-06-08 23:30:00,54.5,47.8,30.11,WNW,293,2.0,-999.0,78,0.00,,,0.00,0,Wunderground v.1.15,2013-06-09 06:30:00,
2013-06-08 23:35:00,54.5,47.8,30.11,WNW,293,2.0,-999.0,78,0.00,,,0.00,0,Wunderground v.1.15,2013-06-09 06:35:00,
2013-06-08 23:37:00,54.6,48.0,30.11,WNW,294,0.0,4.0,78,0.00,,,0.00,0,weatherlink.com 1.10,2013-06-09 06:37:00,
2013-06-08 23:40:00,54.5,47.8,30.11,WNW,293,1.0,-999.0,78,0.00,,,0.00,0,Wunderground v.1.15,2013-06-09 06:40:00,
2013-06-08 23:45:00,54.5,47.8,30.11,WNW,293,1.0,-999.0,78,0.00,,,0.00,0,Wunderground v.1.15,2013-06-09 06:45:00,
2013-06-08 23:50:00,54.5,47.8,30.11,WNW,293,1.0,-999.0,78,0.00,,,0.00,0,Wunderground v.1.15,2013-06-09 06:50:00,
2013-06-08 23:52:00,54.4,48.0,30.11,WNW,298,2.0,4.0,79,0.00,,,0.00,0,weatherlink.com 1.10,2013-06-09 06:52:00,
2013-06-08 23:55:00,54.4,48.0,30.11,WNW,293,2.0,-999.0,79,0.00,,,0.00,0,Wunderground v.1.15,2013-06-09 06:55:00,